RH
12 13 12 10 10 11 13 13 13 18 24 33 47 48 45 44 48 56 48 44 36 36 28 19 10 9 9 7 8 7 4 4 9 12 12 13 14 13 12 11 13 14 15 15 15 13 10 11 11
17 17 15 14 13 14 14 15 14 14 15 19 27 41 49 52 48 48 56 50 39 37 39 32 16 9 7 8 8 9 5 5 6 10 10 12 14 13 14 16 16 17 16 15 15 13 12 12 12
23 21 18 17 18 17 20 22 20 18 15 14 13 19 31 47 56 53 55 58 55 40 44 47 33 16 10 8 8 9 9 6 5 6 8 10 12 15 17 18 18 17 15 14 12 11 11 12 12
26 26 27 24 25 28 29 36 32 26 23 30 27 15 16 27 52 65 57 53 58 42 38 43 48 33 15 12 11 9 10 9 6 4 5 8 12 15 18 19 20 18 16 14 12 10 11 12 15
29 33 34 37 37 32 27 35 32 34 35 33 33 33 25 19 27 54 64 65 58 60 44 45 43 49 33 18 15 9 9 10 9 6 4 5 10 13 18 19 20 19 18 17 16 15 14 16 17
10 12 18 24 30 26 29 34 38 37 36 34 27 38 34 24 20 24 46 72 69 68 66 61 51 46 49 40 26 20 13 9 12 9 6 4 7 10 16 18 19 19 18 17 18 18 18 18 18
16 14 12 10 11 15 17 24 30 31 27 24 21 34 31 27 27 25 23 37 68 69 74 70 68 60 57 51 42 33 26 15 9 10 8 5 4 9 11 17 18 18 17 16 16 16 15 15 12
22 21 19 18 17 16 15 13 12 12 13 14 15 32 34 32 32 36 38 28 35 64 69 69 71 74 70 54 50 47 45 14 9 10 10 8 5 6 10 11 16 17 16 15 14 13 12 11 10
27 26 26 23 22 20 19 18 16 14 13 11 10 13 34 40 41 42 44 48 38 32 63 70 69 70 73 73 63 53 47 35 13 10 10 10 8 6 7 10 10 14 16 16 14 13 11 10 10
19 21 24 24 24 22 20 20 19 16 16 16 14 10 9 17 38 48 41 42 49 46 36 62 72 72 76 84 86 87 51 49 45 17 10 11 10 8 7 8 9 8 12 15 15 15 13 12 11
22 24 26 26 24 20 17 15 13 13 10 11 12 9 8 7 8 33 58 49 30 43 49 45 63 70 71 86 94 91 94 53 53 52 25 12 12 11 9 8 8 8 8 10 14 14 14 13 12
22 24 25 23 18 15 14 12 10 9 8 8 7 7 6 6 6 6 12 57 55 28 45 48 45 72 79 64 61 90 96 95 69 57 58 39 14 11 11 10 9 8 8 8 8 11 13 13 12
15 22 24 21 17 15 14 13 11 10 10 10 9 8 7 6 6 5 5 24 40 33 24 44 55 56 67 84 70 60 61 78 94 100 74 62 48 20 12 11 11 10 9 8 8 8 9 10 11
6 6 10 18 22 21 19 16 15 15 15 14 12 13 12 11 9 8 7 5 6 8 26 29 20 42 55 49 53 56 51 39 60 84 96 94 79 59 38 19 12 11 11 10 9 9 8 8 9
4 4 5 7 9 14 21 21 20 19 19 18 18 18 17 15 12 12 12 11 11 10 6 20 47 15 23 37 40 38 40 34 31 45 77 92 93 73 74 62 41 20 12 11 11 11 10 9 9
17 14 7 4 4 5 6 8 13 16 19 18 22 24 24 23 22 22 20 17 15 13 12 10 14 34 13 7 13 30 25 21 20 21 24 96 71 93 96 87 73 58 33 21 13 12 13 12 10
14 16 19 15 10 8 5 4 5 5 5 6 7 8 9 11 16 23 27 26 22 20 17 14 11 8 7 7 6 5 5 5 6 8 12 16 40 98 88 93 97 83 59 50 42 25 15 15 13
15 14 14 16 17 20 17 8 7 7 10 12 14 15 16 16 18 18 12 11 16 18 18 18 16 14 12 10 8 7 6 6 5 4 4 6 10 22 85 80 96 71 88 81 67 53 40 20 16
30 25 18 16 17 19 18 14 12 11 10 11 14 19 22 21 25 24 19 19 18 12 10 13 12 10 10 9 9 9 9 9 8 6 5 4 4 7 14 100 71 98 70 95 96 87 60 52 52
31 32 30 26 24 22 17 12 14 17 16 16 19 24 30 32 30 30 27 25 21 20 17 17 18 15 13 12 11 10 9 8 8 7 7 6 5 4 5 12 96 98 96 87 92 93 95 87 76
31 32 33 34 36 33 28 24 19 15 15 15 15 17 20 33 37 31 22 17 21 26 28 25 20 15 11 7 6 5 5 6 6 6 7 6 6 5 4 4 50 99 90 73 87 98 96 97 96
38 38 35 34 34 39 39 36 36 27 20 14 13 16 21 36 48 41 33 27 32 36 28 12 8 6 5 5 5 5 5 4 4 3 3 4 5 6 6 4 4 20 22 56 97 95 97 95 97
43 38 40 40 40 39 42 42 45 44 33 19 16 18 25 33 35 48 40 33 39 38 20 7 7 10 7 7 9 8 7 8 8 6 5 4 3 4 5 5 5 4 6 67 100 99 94 97 96
43 43 42 42 44 45 43 45 49 48 49 51 37 25 31 37 43 48 45 35 33 38 23 8 11 14 12 12 12 11 12 11 10 8 8 8 7 6 4 5 6 5 5 36 97 99 99 90 97
54 52 47 42 43 44 47 44 57 52 55 57 56 38 38 44 45 43 46 47 38 54 29 12 18 19 16 24 27 20 20 21 15 12 14 17 12 13 14 9 10 9 9 7 7 31 41 100 87
62 60 59 54 48 45 52 52 56 58 62 68 66 59 59 53 46 49 48 56 44 53 23 16 22 22 26 35 33 40 37 37 32 18 20 23 23 22 20 18 15 14 18 16 10 9 9 88 100
67 70 67 62 55 52 44 49 66 69 69 76 79 75 61 55 48 62 63 67 66 61 23 19 24 32 34 39 50 55 53 56 55 32 21 25 33 32 24 20 20 26 90 52 35 19 25 22 75
76 73 74 70 66 53 45 43 55 65 74 85 90 97 82 69 63 59 68 72 70 68 60 24 22 27 43 46 60 61 62 63 68 44 28 37 44 39 30 21 21 26 39 57 41 20 53 92 56
71 69 70 64 63 56 45 37 54 54 66 69 86 90 98 76 74 83 83 76 66 61 70 33 29 37 44 56 55 63 60 69 69 43 40 58 57 46 46 44 51 55 42 43 95 29 27 54 58
70 69 66 57 49 45 43 25 36 58 62 65 67 83 98 98 90 89 94 83 72 63 77 47 30 27 54 56 43 46 80 76 51 43 64 77 79 53 44 46 61 65 61 48 92 25 51 100 49
Wind_Speed
15 16 16 18 22 24 24 25 25 28 30 33 33 30 29 28 26 24 24 21 18 17 15 16 18 18 18 17 17 17 18 20 20 18 16 14 12 11 9 8 6 5 5 4 3 4 8 9 8
12 13 15 15 16 16 19 20 21 24 27 31 33 34 34 32 30 27 26 24 23 20 17 15 17 19 19 19 18 19 18 19 20 20 19 17 16 14 12 10 9 7 7 6 6 6 8 7 5
12 13 15 15 16 16 15 15 17 19 22 24 30 35 36 37 33 30 27 26 24 23 21 17 16 18 21 22 21 20 21 20 20 22 20 19 18 16 15 12 10 9 9 8 8 8 8 6 4
11 13 14 15 16 17 15 13 14 16 17 13 17 27 37 37 35 32 30 30 27 27 25 21 18 19 21 23 24 22 23 22 21 22 23 23 21 19 17 16 13 11 10 10 9 9 8 7 5
13 14 15 16 15 16 18 15 16 16 16 21 20 22 26 34 38 35 33 32 31 30 29 26 23 21 21 23 25 26 24 24 24 23 25 25 23 22 20 18 17 15 13 11 11 11 10 9 8
10 13 16 18 18 17 18 20 21 22 23 22 22 23 27 26 32 38 37 33 32 32 31 30 28 26 24 23 25 27 28 26 27 25 25 26 26 25 23 21 20 18 16 14 13 12 11 11 10
9 10 11 14 16 17 19 21 24 25 27 27 25 23 24 26 26 28 36 40 36 35 34 32 31 30 28 27 27 28 29 30 29 28 27 27 28 28 26 25 23 22 20 18 17 15 14 14 14
10 11 12 12 13 13 15 17 20 24 27 28 29 26 25 27 31 31 31 34 39 40 37 36 35 36 33 31 31 30 31 31 32 31 30 29 30 30 30 28 28 26 24 22 20 18 18 18 17
12 13 13 13 13 14 15 16 18 19 21 22 25 29 29 29 31 33 35 36 36 42 42 40 39 39 37 34 34 34 33 32 32 33 33 32 32 32 32 32 31 30 29 26 24 21 22 20 20
11 13 13 13 14 14 16 18 19 21 22 22 23 26 30 33 33 34 35 36 37 39 45 46 42 42 39 41 40 38 38 35 33 34 35 35 35 34 34 34 34 33 33 31 28 26 26 24 23
9 10 11 12 13 14 16 18 20 21 22 24 24 26 29 31 35 39 37 37 37 39 42 47 49 46 42 43 44 47 41 39 36 34 35 37 38 36 36 36 36 36 36 36 33 32 30 29 27
8 9 10 12 14 15 15 15 17 18 19 21 22 24 26 28 30 34 40 40 39 37 41 45 50 53 48 45 46 47 49 44 40 39 38 36 38 39 39 38 38 38 38 38 37 36 33 32 32
10 10 11 12 12 12 13 14 15 16 16 18 19 19 20 22 23 28 34 43 44 40 38 44 50 48 52 51 51 49 49 49 43 41 42 40 39 39 41 42 42 41 41 40 39 38 37 36 35
12 12 13 13 14 14 14 13 13 14 15 16 18 18 19 20 21 21 22 26 31 36 40 39 47 47 49 52 54 52 51 50 46 45 46 48 42 41 42 43 44 44 44 44 42 41 40 40 39
17 15 15 15 15 16 16 16 16 16 15 16 17 17 20 22 23 22 21 21 22 22 26 37 42 40 50 52 53 53 51 53 51 48 46 44 49 49 45 44 43 45 47 47 46 44 43 43 42
17 18 17 18 19 19 17 19 19 20 20 20 19 20 22 24 24 24 23 23 23 23 24 26 33 43 43 47 51 53 55 56 55 53 51 49 41 49 40 46 44 44 48 48 49 48 46 46 46
18 18 18 18 19 20 20 25 20 19 21 22 19 21 23 25 26 28 28 28 27 26 25 26 27 30 33 35 39 44 48 51 55 56 56 54 49 44 48 44 50 51 54 54 52 51 50 50 50
19 19 20 20 19 20 21 22 28 22 22 22 24 24 26 28 29 29 29 30 31 31 31 30 31 32 33 35 36 36 38 39 42 46 52 56 56 57 50 54 54 55 59 66 59 54 52 50 53
24 23 20 22 24 21 26 23 25 26 25 27 30 32 32 31 32 34 34 34 33 33 33 33 33 34 35 37 40 41 41 41 43 44 44 47 56 61 61 64 62 59 63 61 57 59 59 55 49
28 26 26 23 26 27 27 25 29 29 30 31 32 31 31 33 33 34 34 35 35 35 34 34 35 36 38 38 40 43 45 47 48 49 49 50 49 55 64 69 52 56 56 54 60 56 76 63 53
29 29 30 29 24 25 29 30 29 32 33 34 34 33 33 31 32 33 34 35 35 35 35 36 38 39 39 38 37 38 44 48 52 55 56 56 56 56 56 65 65 56 73 67 65 42 44 56 56
30 32 31 31 32 29 26 30 26 29 32 32 33 34 33 32 32 32 35 36 35 35 34 34 35 35 32 31 33 35 37 39 44 51 57 61 62 62 62 62 70 77 73 63 61 52 44 48 58
32 33 35 32 33 31 29 30 27 27 29 30 33 34 35 35 35 34 34 35 35 35 33 33 32 31 32 36 38 40 39 40 41 46 52 53 60 67 68 67 67 68 70 70 70 52 70 47 64
32 34 37 37 33 33 32 30 23 25 30 31 32 34 35 35 35 33 33 33 33 33 32 31 30 29 29 34 36 37 40 39 39 39 42 44 48 58 68 71 70 68 71 77 80 72 56 67 56
32 35 36 38 38 35 33 35 28 27 30 30 31 31 34 35 35 33 31 32 31 33 33 31 30 28 29 33 35 37 38 40 40 39 41 41 41 41 46 62 69 69 70 73 74 83 66 60 74
34 35 36 39 40 39 35 34 29 25 28 30 30 32 36 37 35 32 32 34 33 32 32 31 31 28 30 34 38 39 41 41 41 43 41 40 42 44 44 45 53 64 65 65 66 65 70 70 45
35 34 37 39 40 42 40 39 33 27 30 32 33 34 35 37 33 33 33 33 31 28 29 29 30 31 33 36 39 41 40 41 41 41 42 39 40 42 45 44 45 47 51 57 58 56 51 66 63
36 37 38 40 43 44 41 40 37 30 29 33 38 38 38 39 33 34 33 31 31 31 30 31 32 33 34 37 39 38 38 38 39 37 37 37 39 39 43 45 43 47 50 52 52 47 52 39 63
38 39 39 41 44 47 44 39 39 37 35 36 37 38 36 35 29 33 29 31 31 32 31 32 33 34 36 36 36 35 33 34 32 32 34 36 38 38 39 41 44 46 48 48 44 47 52 53 49
40 40 40 44 45 46 45 40 40 35 36 40 39 37 35 37 31 31 29 32 31 29 30 32 32 33 33 29 30 29 28 26 27 31 35 36 37 34 36 36 40 44 44 44 40 45 46 49 39
Wind_Direction
246 244 247 247 245 247 248 247 245 238 236 236 241 245 248 247 244 245 245 237 234 233 232 230 226 226 222 216 207 207 202 196 191 190 189 187 187 186 184 183 189 190 194 193 182 150 135 117 102
246 246 244 241 245 243 243 243 241 240 239 237 238 242 245 247 247 246 247 246 239 232 231 231 229 230 227 222 217 213 209 206 200 198 197 194 191 192 193 195 198 203 208 199 193 185 165 144 130
252 248 245 245 243 245 247 246 243 244 246 246 243 241 243 244 246 245 247 248 244 237 230 231 231 229 230 226 220 220 216 210 210 207 204 202 198 200 200 201 204 204 206 202 192 192 184 176 176
252 247 251 252 250 248 248 247 248 242 239 231 250 247 242 242 243 242 243 247 243 239 235 233 232 232 231 229 224 222 222 218 214 213 210 209 206 206 206 204 206 207 208 204 201 195 198 204 213
249 252 255 260 262 262 251 241 243 244 248 247 259 260 251 244 242 241 241 243 245 242 239 234 231 231 233 235 229 224 223 223 220 218 218 214 212 213 214 211 213 210 211 208 210 211 211 216 222
263 258 257 256 256 257 251 242 240 249 257 254 255 258 244 247 247 241 241 240 243 243 239 239 235 231 232 234 233 229 226 224 224 220 222 220 216 217 218 218 219 220 218 214 214 217 222 222 230
273 269 263 260 256 253 252 248 245 246 250 251 250 250 240 241 246 248 243 242 241 242 243 238 237 235 232 233 232 231 229 225 226 225 222 223 221 220 220 222 224 225 226 226 222 223 230 235 236
270 267 264 261 259 258 259 257 254 253 255 257 255 252 244 244 243 245 246 245 243 241 241 241 237 237 234 233 233 231 231 231 227 227 227 224 224 223 224 224 226 228 229 230 232 231 235 240 244
270 271 270 270 268 266 262 261 261 260 259 259 253 253 249 248 247 247 246 245 242 241 242 240 242 241 236 235 236 235 232 231 230 229 228 228 226 225 225 227 228 229 230 232 233 236 239 242 247
286 283 282 280 279 277 273 269 266 265 263 261 257 256 254 251 248 248 249 248 250 246 238 241 243 244 240 238 240 238 236 232 231 230 229 230 230 227 228 228 230 231 233 233 233 236 241 242 246
304 303 299 295 288 282 278 275 273 269 265 263 258 254 254 253 252 247 250 250 248 248 246 241 240 242 244 244 243 247 234 235 233 233 233 232 232 231 230 231 232 232 235 234 235 235 238 243 245
324 317 311 306 301 296 292 286 280 278 273 268 263 259 257 257 253 251 248 249 249 247 246 245 241 240 243 246 250 254 255 237 233 234 231 233 235 235 234 234 235 236 237 238 239 239 239 242 246
323 313 308 307 308 307 303 299 292 287 286 282 278 275 267 264 260 254 250 248 251 252 245 243 244 241 244 247 252 253 258 264 257 231 236 233 233 234 237 238 237 237 239 240 240 242 243 242 244
325 322 306 296 293 295 300 300 300 299 297 289 284 283 279 274 270 263 260 257 257 257 250 247 246 244 239 247 252 250 253 255 257 260 240 232 235 234 234 237 239 240 240 241 240 243 245 247 246
318 312 307 307 305 297 287 285 287 285 286 287 291 287 284 281 276 273 269 263 260 256 250 246 251 253 245 244 248 251 252 254 254 253 257 258 236 237 236 236 236 240 242 243 245 242 244 246 248
321 314 310 305 302 299 296 292 293 291 283 278 276 275 276 277 279 278 275 272 265 261 256 250 243 246 249 245 247 250 253 254 255 254 251 257 261 246 245 234 243 242 243 243 243 245 245 246 247
325 317 313 306 302 303 302 297 290 287 283 281 277 276 276 276 274 271 269 267 267 266 265 261 256 252 250 250 249 251 254 253 253 252 250 249 250 251 251 251 246 245 246 242 241 242 243 246 246
324 318 313 307 303 301 296 289 289 287 280 281 281 280 280 279 277 274 271 268 266 264 263 262 261 260 260 258 256 254 254 255 255 253 250 247 244 245 247 248 242 251 250 243 243 243 243 242 246
323 319 310 303 300 294 293 289 288 289 286 287 288 289 287 280 277 274 272 271 270 268 265 263 261 260 260 261 262 263 261 260 259 257 255 252 246 240 239 241 246 242 254 253 250 248 245 242 244
323 324 321 310 304 300 287 282 285 285 286 286 286 287 289 289 279 276 272 270 269 270 271 273 273 272 270 267 266 265 265 265 263 260 257 255 252 246 240 239 238 237 247 248 261 258 243 240 240
321 322 320 318 311 305 301 290 284 283 282 283 283 285 289 288 282 281 279 274 272 272 271 270 270 271 270 268 267 267 267 265 264 262 258 255 252 250 246 242 236 238 241 250 253 246 248 242 244
318 317 316 317 316 315 307 303 297 286 282 280 280 280 284 283 283 280 277 275 270 267 265 263 266 268 268 271 277 278 279 279 278 272 263 255 252 249 248 244 243 240 245 247 242 250 249 250 251
315 315 314 313 315 317 314 306 305 294 285 280 277 279 279 281 285 284 276 271 268 266 268 264 262 265 268 276 280 280 279 278 282 281 273 264 252 246 243 244 243 246 244 240 241 247 245 263 256
314 315 314 314 316 316 315 314 313 297 290 286 281 278 279 284 287 285 278 275 271 269 272 267 264 268 276 278 277 277 278 277 276 279 274 271 265 251 244 241 240 242 240 236 240 243 251 251 252
314 314 313 314 316 319 320 316 317 307 294 289 281 275 278 281 281 281 283 283 281 273 273 269 262 267 275 277 278 276 277 274 271 269 270 268 264 262 255 244 241 240 241 240 242 243 247 248 248
314 314 315 316 318 318 318 318 320 309 299 292 281 276 276 277 277 283 288 287 283 273 269 266 267 274 276 279 276 272 270 272 269 265 266 266 263 261 257 253 246 242 241 242 245 242 242 237 240
313 313 314 313 314 315 318 319 315 308 293 283 282 278 274 276 280 285 291 287 286 281 277 270 272 278 281 281 282 281 274 270 268 263 263 264 263 259 253 252 249 245 242 241 242 242 242 248 234
312 315 314 314 314 314 319 317 311 313 294 288 284 281 277 278 285 284 286 289 288 292 286 278 277 280 281 286 287 282 278 268 267 263 263 264 261 257 251 249 249 245 240 242 239 239 233 245 238
315 313 311 311 312 313 317 316 313 309 302 294 287 286 283 281 281 283 282 283 286 288 285 281 280 282 287 291 287 279 277 270 263 263 263 263 260 256 247 251 248 244 238 236 233 236 235 245 247
314 311 311 309 311 313 312 318 312 306 293 287 293 293 284 280 276 274 279 283 285 284 285 282 282 285 293 289 287 278 272 265 263 266 268 263 259 253 249 249 245 237 234 233 229 229 229 234 249